Location: Colonia Mina de C?rbuni
(46.1667°N, 22.7167°E)
Time: 11:43:05
(UTC+00:00)

CZ-4B R/B - Pass Details

Date: 04 February 2023
Orbit: 473 x 640 km, 97.9° (Epoch: 25 March)

Event Time Altitude Azimuth Distance (km) Brightness Sun altitude
Rises 16:51:16 0° 183° (S) 2,801 6.6 -13.0°
Reaches altitude 10° 16:53:34 10° 191° (S) 1,877 5.8 -13.4°
Maximum altitude 16:57:23 39° 261° (W) 838 4.4 -14.0°
Drops below altitude 10° 17:01:02 10° 331° (NNW) 1,794 5.7 -14.6°
Sets 17:03:12 0° 340° (NNW) 2,660 6.5 -15.0°
